West Vancouver, British Columbia

12:10 PM PDT on August 21, 2017 (GMT -0700)
West Vancouver

Weather History for CWWA - October, 2011

Change the Weather History Date:

Friday, October 28, 2011

  Actual Average Record
Temperature  
Mean Temperature 47 °F -  
Max Temperature 53 °F - - ()
Min Temperature 41 °F - - ()
Degree Days  
Heating Degree Days 18    
Moisture  
Dew Point 40 °F    
Average Humidity 82    
Maximum Humidity 97    
Minimum Humidity 56    
Precipitation  
Precipitation 0.51 in - - ()
Sea Level Pressure  
Sea Level Pressure 29.93 in    
Wind  
Wind Speed 3 mph ()    
Max Wind Speed 10 mph    
Max Gust Speed 18 mph    
T = Trace of Precipitation, MM = Missing Value Source: Averaged Metar Reports

Daily Weather History Graph

Daily Weather History Graph

Search for Another Location

Airport or City:

Trip Planner

Search our weather history database for the weather conditions in past years. The results will help you decide how hot, cold, wet, or windy it might be!

Date:

Astronomy

Oct. 28, 2011 Rise Set
Actual Time 7:54 AM PDT 5:58 PM PDT
Civil Twilight 7:21 AM PDT 6:31 PM PDT
Nautical Twilight 6:43 AM PDT 7:08 PM PDT
Astronomical Twilight 6:06 AM PDT 7:45 PM PDT
Moon 10:33 AM PDT (10/28) 7:08 PM PDT (10/28)
Length of Visible Light 11h 10m
Length of Day
10h 04m
Waxing Crescent, 6% of the Moon is Illuminated
Oct 28
Waxing Crescent
Nov 2
First Quarter
Nov 10
Full
Nov 18
Last Quarter
Nov 24
New

Hourly Weather History & Observations

Time (PDT) Temp. Windchill Dew Point Humidity Pressure Visibility Wind Dir Wind Speed Gust Speed Precip Events Conditions
12:00 AM 41.4 °F - 38.1 °F 88% 30.06 in - Calm Calm - N/A   Unknown
1:00 AM 41.7 °F - 37.8 °F 86% 30.04 in - North 1.2 mph - N/A   Unknown
2:00 AM 42.1 °F - 37.6 °F 84% 30.03 in - NNW 2.3 mph - N/A   Unknown
3:00 AM 43.0 °F - 37.0 °F 80% 30.05 in - West 2.3 mph - N/A   Unknown
4:00 AM 45.3 °F - 37.2 °F 73% 29.97 in - NE 2.3 mph - N/A   Unknown
5:00 AM 44.2 °F - 38.3 °F 80% 29.98 in - ENE 2.3 mph - N/A   Unknown
6:00 AM 48.0 °F - 34.5 °F 60% 29.94 in - NE 3.5 mph - N/A   Unknown
7:00 AM 45.0 °F - 38.5 °F 78% 29.93 in - West 2.3 mph - N/A   Unknown
8:00 AM 48.9 °F - 34.2 °F 57% 29.90 in - East 4.6 mph - N/A   Unknown
9:00 AM 50.0 °F - 34.7 °F 56% 29.91 in - ENE 5.8 mph - 0.01 in   Unknown
10:00 AM 48.4 °F - 37.2 °F 65% 29.87 in - ENE 10.4 mph - 0.01 in   Unknown
11:00 AM 46 °F - 40 °F 74% 29.88 in - East 8.1 mph - -  
11:00 AM 45.7 °F 41.5 °F 40.5 °F 82% 29.88 in - East 8.1 mph - 0.05 in   Unknown
12:00 PM 45.0 °F 40.6 °F 41.0 °F 86% 29.89 in - ENE 8.1 mph - 0.17 in   Unknown
1:00 PM 44.4 °F 39.0 °F 41.2 °F 88% 29.87 in - East 10.4 mph 17.3 mph 0.23 in   Unknown
2:00 PM 45.0 °F 41.2 °F 41.4 °F 87% 29.83 in - ENE 6.9 mph 18.4 mph 0.09 in   Unknown
3:00 PM 45.5 °F 43.2 °F 42.1 °F 88% 29.84 in - ENE 4.6 mph - N/A   Unknown
4:00 PM 46.0 °F 43.1 °F 42.4 °F 87% 29.84 in - East 5.8 mph - N/A   Unknown
5:00 PM 46 °F - 44 °F 88% 29.85 in - ENE 3.5 mph - -  
5:00 PM 46.2 °F 45.0 °F 43.5 °F 90% 29.85 in - ENE 3.5 mph - N/A   Unknown
6:00 PM 46.0 °F - 44.2 °F 93% 29.86 in - ENE 1.2 mph - N/A   Unknown
8:00 PM 44.2 °F - 43.0 °F 95% 29.93 in - NNE 1.2 mph - N/A   Unknown
9:00 PM 42.6 °F - 41.5 °F 96% 29.95 in - NNE 2.3 mph - N/A   Unknown
10:00 PM 42.8 °F - 41.9 °F 97% 29.98 in - NNE 1.2 mph - N/A   Unknown
11:00 PM 44.2 °F - 43.3 °F 97% 30.02 in - North 1.2 mph - N/A   Unknown